Hourly Weather Balchik

Today, 8 July, Wednesday

Time Temperature Precipitation Wind Pressure Humidity
00:00 +15°C° 0 mm 6 mps 736 mmHg 89%
01:00 +14°C° 0 mm 6 mps 736 mmHg 88%
02:00 +14°C° 0 mm 6 mps 736 mmHg 92%
03:00 +14°C° 0 mm 6 mps 737 mmHg 89%
04:00 +13°C° 0 mm 6 mps 737 mmHg 87%
05:00 +13°C° 0 mm 6 mps 737 mmHg 84%
06:00 +14°C° 0 mm 7 mps 738 mmHg 79%
07:00 +15°C° 0 mm 7 mps 738 mmHg 75%
08:00 +16°C° 0 mm 8 mps 739 mmHg 71%
09:00 +17°C° 0 mm 7 mps 739 mmHg 66%
10:00 +20°C° 0 mm 7 mps 740 mmHg 62%
11:00 +21°C° 0 mm 6 mps 740 mmHg 57%
12:00 +22°C° 0 mm 6 mps 740 mmHg 54%
13:00 +23°C° 0 mm 6 mps 740 mmHg 51%
14:00 +25°C° 0 mm 5 mps 740 mmHg 49%
15:00 +25°C° 0 mm 5 mps 740 mmHg 49%
16:00 +25°C° 0 mm 4 mps 740 mmHg 49%
17:00 +23°C° 0 mm 4 mps 740 mmHg 49%
18:00 +22°C° 0 mm 3 mps 740 mmHg 56%
19:00 +20°C° 0 mm 2 mps 740 mmHg 62%
20:00 +19°C° 0 mm 2 mps 740 mmHg 68%
21:00 +19°C° 0 mm 1 mps 740 mmHg 70%
22:00 +18°C° 0 mm 1 mps 740 mmHg 72%
23:00 +18°C° 0 mm 1 mps 741 mmHg 73%

Tomorrow, 9 July, Thursday

Time Temperature Precipitation Wind Pressure Humidity
00:00 +16°C° 0 mm 1 mps 741 mmHg 74%
01:00 +16°C° 0 mm 1 mps 741 mmHg 74%
02:00 +16°C° 0 mm 1 mps 741 mmHg 75%
03:00 +16°C° 0 mm 1 mps 741 mmHg 75%
04:00 +16°C° 0 mm 1 mps 741 mmHg 75%
05:00 +16°C° 0 mm 1 mps 741 mmHg 76%
06:00 +19°C° 0 mm 1 mps 741 mmHg 69%
07:00 +21°C° 0 mm 1 mps 741 mmHg 62%
08:00 +21°C° 0 mm 0 mps 742 mmHg 56%
09:00 +22°C° 0 mm 0 mps 742 mmHg 52%
10:00 +26°C° 0 mm 1 mps 742 mmHg 48%
11:00 +27°C° 0 mm 1 mps 742 mmHg 44%
12:00 +27°C° 0 mm 1 mps 742 mmHg 43%
13:00 +28°C° 0 mm 1 mps 742 mmHg 41%
14:00 +28°C° 0 mm 2 mps 742 mmHg 40%
15:00 +28°C° 0 mm 2 mps 741 mmHg 44%
16:00 +27°C° 0 mm 3 mps 741 mmHg 47%
17:00 +27°C° 0 mm 3 mps 741 mmHg 51%
18:00 +25°C° 0 mm 3 mps 741 mmHg 57%
19:00 +22°C° 0 mm 3 mps 741 mmHg 64%
20:00 +20°C° 0 mm 3 mps 741 mmHg 70%
21:00 +19°C° 0 mm 2 mps 741 mmHg 72%
22:00 +19°C° 0 mm 2 mps 741 mmHg 74%
23:00 +19°C° 0 mm 1 mps 741 mmHg 76%

Day after tomorrow, 10 July, Friday

Time Temperature Precipitation Wind Pressure Humidity
00:00 +19°C° 0 mm 1 mps 741 mmHg 77%
01:00 +19°C° 0 mm 1 mps 741 mmHg 78%
02:00 +19°C° 0 mm 1 mps 741 mmHg 80%
03:00 +19°C° 0 mm 1 mps 741 mmHg 80%
04:00 +19°C° 0 mm 1 mps 741 mmHg 80%
05:00 +18°C° 0 mm 1 mps 741 mmHg 80%
06:00 +19°C° 0 mm 2 mps 741 mmHg 74%
07:00 +21°C° 0 mm 3 mps 741 mmHg 67%
08:00 +23°C° 0 mm 4 mps 742 mmHg 60%
09:00 +25°C° 0 mm 4 mps 742 mmHg 56%
10:00 +27°C° 0 mm 4 mps 742 mmHg 52%
11:00 +28°C° 0 mm 4 mps 742 mmHg 48%
12:00 +28°C° 0 mm 5 mps 742 mmHg 48%
13:00 +28°C° 0 mm 5 mps 742 mmHg 48%
14:00 +29°C° 0 mm 5 mps 742 mmHg 47%
15:00 +28°C° 0 mm 5 mps 741 mmHg 49%
16:00 +27°C° 0 mm 5 mps 741 mmHg 51%
17:00 +27°C° 0 mm 5 mps 741 mmHg 53%
18:00 +25°C° 0 mm 4 mps 741 mmHg 60%
19:00 +22°C° 0 mm 3 mps 741 mmHg 67%
20:00 +20°C° 0 mm 3 mps 741 mmHg 74%
21:00 +20°C° 0 mm 3 mps 741 mmHg 77%
22:00 +19°C° 0 mm 2 mps 741 mmHg 80%
23:00 +19°C° 0 mm 2 mps 741 mmHg 83%

11 July, Saturday

Time Temperature Precipitation Wind Pressure Humidity
00:00 +18°C° 0 mm 2 mps 741 mmHg 85%
01:00 +18°C° 0 mm 2 mps 741 mmHg 86%
02:00 +18°C° 0 mm 2 mps 740 mmHg 88%
03:00 +18°C° 0 mm 2 mps 740 mmHg 88%
04:00 +18°C° 0 mm 2 mps 740 mmHg 89%
05:00 +18°C° 0 mm 2 mps 740 mmHg 89%
06:00 +20°C° 0 mm 3 mps 740 mmHg 81%
07:00 +22°C° 0 mm 3 mps 740 mmHg 74%
08:00 +25°C° 0 mm 4 mps 740 mmHg 67%
09:00 +26°C° 0 mm 4 mps 740 mmHg 61%
10:00 +27°C° 0 mm 5 mps 740 mmHg 56%
11:00 +29°C° 0 mm 5 mps 740 mmHg 51%
12:00 +29°C° 0 mm 5 mps 740 mmHg 50%
13:00 +29°C° 0 mm 5 mps 740 mmHg 50%
14:00 +29°C° 0 mm 5 mps 739 mmHg 50%
15:00 +28°C° 0 mm 5 mps 739 mmHg 52%
16:00 +28°C° 0 mm 4 mps 739 mmHg 54%
17:00 +27°C° 0 mm 4 mps 739 mmHg 56%
18:00 +26°C° 0 mm 4 mps 738 mmHg 63%
19:00 +24°C° 0 mm 3 mps 738 mmHg 70%
20:00 +21°C° 0 mm 2 mps 738 mmHg 77%
21:00 +20°C° 0 mm 2 mps 738 mmHg 80%
22:00 +19°C° 0 mm 2 mps 738 mmHg 83%
23:00 +20°C° 0 mm 1 mps 738 mmHg 86%

12 July, Sunday

Time Temperature Precipitation Wind Pressure Humidity
00:00 +19°C° 0 mm 1 mps 738 mmHg 86%
01:00 +19°C° 0 mm 1 mps 737 mmHg 86%
02:00 +19°C° 0 mm 1 mps 737 mmHg 86%
03:00 +18°C° 0 mm 1 mps 737 mmHg 86%
04:00 +18°C° 0 mm 1 mps 737 mmHg 86%
05:00 +18°C° 0 mm 1 mps 737 mmHg 86%
06:00 +20°C° 0 mm 1 mps 737 mmHg 79%
07:00 +21°C° 0 mm 2 mps 737 mmHg 71%
08:00 +24°C° 0 mm 2 mps 738 mmHg 63%
09:00 +25°C° 0 mm 2 mps 738 mmHg 58%
10:00 +27°C° 0 mm 3 mps 738 mmHg 53%
11:00 +28°C° 0 mm 3 mps 738 mmHg 48%
12:00 +29°C° 0 mm 3 mps 738 mmHg 47%
13:00 +30°C° 0 mm 3 mps 737 mmHg 46%
14:00 +30°C° 0 mm 4 mps 737 mmHg 45%
15:00 +30°C° 0 mm 3 mps 737 mmHg 47%
16:00 +30°C° 0 mm 3 mps 737 mmHg 49%
17:00 +29°C° 0 mm 3 mps 737 mmHg 51%
18:00 +27°C° 0.2 mm 3 mps 737 mmHg 59%
19:00 +25°C° 0.2 mm 3 mps 737 mmHg 68%
20:00 +22°C° 0.2 mm 3 mps 737 mmHg 76%
21:00 +21°C° 0.1 mm 4 mps 738 mmHg 79%
22:00 +20°C° 0.1 mm 5 mps 738 mmHg 81%
23:00 +17°C° 0.1 mm 6 mps 738 mmHg 84%

13 July, Monday

Time Temperature Precipitation Wind Pressure Humidity
00:00 +17°C° 0 mm 6 mps 738 mmHg 83%
01:00 +16°C° 0 mm 6 mps 738 mmHg 83%
02:00 +15°C° 0 mm 7 mps 738 mmHg 83%
03:00 +15°C° 0 mm 7 mps 739 mmHg 82%
04:00 +14°C° 0 mm 7 mps 739 mmHg 81%
05:00 +14°C° 0 mm 7 mps 739 mmHg 81%
06:00 +14°C° 0 mm 7 mps 739 mmHg 78%
07:00 +15°C° 0 mm 7 mps 739 mmHg 75%
08:00 +15°C° 0 mm 7 mps 740 mmHg 73%
09:00 +16°C° 0 mm 7 mps 740 mmHg 68%
10:00 +17°C° 0 mm 7 mps 740 mmHg 64%
11:00 +18°C° 0 mm 7 mps 740 mmHg 60%
12:00 +20°C° 0 mm 6 mps 740 mmHg 56%
13:00 +22°C° 0 mm 6 mps 740 mmHg 52%
14:00 +23°C° 0 mm 6 mps 740 mmHg 49%
15:00 +23°C° 0 mm 6 mps 740 mmHg 47%
16:00 +24°C° 0 mm 6 mps 740 mmHg 46%
17:00 +24°C° 0 mm 6 mps 740 mmHg 45%
18:00 +22°C° 0 mm 5 mps 740 mmHg 51%
19:00 +20°C° 0 mm 4 mps 740 mmHg 56%
20:00 +19°C° 0 mm 3 mps 740 mmHg 62%
21:00 +18°C° 0 mm 3 mps 740 mmHg 67%
22:00 +17°C° 0 mm 3 mps 740 mmHg 72%
23:00 +16°C° 0 mm 3 mps 740 mmHg 77%
Show more